This is the latest recevied weather packets stored in our database for station/object KE4EST. If no packets are shown the sender has not sent any weather packets the latest 10 day(s).
| Time | Temp. | Humidity | Pressure | Rain* | Wind** | Luminosity | Snow |
|---|---|---|---|---|---|---|---|
| 1778162721 | 15° C | 99% | 1012.6 hPa | 0 mm | - | 105 W/m² | - |
| 1778162418 | 15° C | 99% | 1012.9 hPa | 0 mm | - | 117 W/m² | - |
| 1778162115 | 15° C | 99% | 1012.3 hPa | 0 mm | - | 118 W/m² | - |
| 1778161812 | 15° C | 99% | 1012.1 hPa | 0 mm | - | 179 W/m² | - |
| 1778161503 | 15° C | 99% | 1012.3 hPa | 0 mm | - | 100 W/m² | - |
| 1778161199 | 15° C | 99% | 1012.2 hPa | 0 mm | - | 92 W/m² | - |
| 1778160895 | 15° C | 99% | 1012.1 hPa | 0 mm | - | 82 W/m² | - |
| 1778160593 | 15° C | 99% | 1011.9 hPa | 0 mm | - | 87 W/m² | - |
| 1778160289 | 15° C | 99% | 1011.9 hPa | 0 mm | - | 144 W/m² | - |
| 1778159986 | 15° C | 99% | 1012.1 hPa | 0 mm | - | 82 W/m² | - |
| 1778159683 | 15° C | 99% | 1011.5 hPa | 0 mm | - | 125 W/m² | - |
| 1778159380 | 15° C | 99% | 1011.5 hPa | 0 mm | - | 107 W/m² | - |
| 1778159077 | 15° C | 99% | 1011.4 hPa | 0 mm | - | 92 W/m² | - |
| 1778158776 | 15° C | 99% | 1011.8 hPa | 0 mm | - | 46 W/m² | - |
| 1778158473 | 15.56° C | 99% | 1011.8 hPa | 0 mm | - | 52 W/m² | - |
| 1778158170 | 15.56° C | 99% | 1012.2 hPa | 0 mm | - | 69 W/m² | - |
| 1778157866 | 15.56° C | 99% | 1011.9 hPa | 0 mm | - | 33 W/m² | - |
| 1778157565 | 15° C | 99% | 1012.1 hPa | 0 mm | - | 51 W/m² | - |
| 1778157261 | 15° C | 99% | 1012.1 hPa | 0 mm | - | 26 W/m² | - |
| 1778156958 | 15° C | 99% | 1012.4 hPa | 1.78 mm | - | 21 W/m² | - |
| 1778156653 | 15° C | 99% | 1012.4 hPa | 1.78 mm | - | 22 W/m² | - |
| 1778156350 | 15.56° C | 99% | 1012.5 hPa | 0 mm | - | 17 W/m² | - |
| 1778156045 | 15.56° C | 99% | 1012.7 hPa | 0 mm | - | 20 W/m² | - |
| 1778155741 | 15.56° C | 99% | 1012.7 hPa | 0 mm | - | 15 W/m² | - |
| 1778155438 | 15.56° C | 99% | 1012.4 hPa | 0 mm | - | 11 W/m² | - |
* Rain latest hour (hover to see other rain measurements)
** Current wind speed in m/s (hover to see current wind gust speed)